Home   Weather   Taloyoak   Past weeks

Flag for Canada Past Weather in Taloyoak, Nunavut, Canada — Yesterday and Last 2 Weeks

Now
-33 °F

Snow flurries. Passing clouds.


Feels Like: -59 °F
Forecast: -36 / -28 °F
Wind: 13 mph from Northeast

Location: Spence Bay Airport

Current Time: Jan 19, 2017 at 10:19:30 am

Latest Report: Jan 19, 2017 at 9:00 am


Visibility: 15 mi

Pressure: 30.10 "Hg

Humidity: 66%

Dew Point: -40 °F

Location of TaloyoakLocation

Past Weather in Taloyoak — Graph

°F

Taloyoak Temperature Yesterday

Maximum temperature yesterday: -27 °F (at 1:00 pm)
Minimum temperature yesterday: -33 °F (at 10:00 am)
Average temperature yesterday: -29 °F

High & Low Weather Summary for the Past Weeks

 TemperatureHumidityPressure
High0 °F (Jan 5, 1:00 am)84% (Jan 4, 4:00 pm)30.18 "Hg (Jan 4, 4:00 pm)
Low-42 °F (Jan 11, 6:00 am)58% (Jan 8, 8:00 am)29.09 "Hg (Jan 17, 7:00 am)
Average-29 °F65%29.80 "Hg
* Reported Jan 4 9:00 am — Jan 19 9:00 am, Taloyoak, Weather by CustomWeather, © 2017

Note: Actual official high and low records may vary slightly from our data, if they occured in-between our weather recording intervals... More about our weather records

Advertising

Taloyoak Weather History for the Previous 24 Hours

Scroll right to see more
 ConditionsComfort  
Time TempWeatherWind HumidityBarometerVisibility
9:00 am
Thu, Jan 19
-33 °FSnow flurries. Passing clouds.13 mph66%30.10 "Hg15 mi
8:00 am-35 °FSnow flurries. Passing clouds.9 mph66%30.08 "Hg15 mi
7:00 am-35 °FSnow flurries. Clear.12 mph66%30.06 "Hg15 mi
6:00 am-35 °FSnow flurries. Clear.9 mph66%30.03 "Hg15 mi
5:00 am-35 °FSnow flurries. Clear.13 mph66%30.02 "Hg15 mi
4:00 am-35 °FSnow flurries. Clear.13 mph66%30.01 "Hg15 mi
3:00 am-35 °FSnow flurries. Clear.15 mph59%29.98 "Hg15 mi
2:00 am-35 °FSnow flurries. Clear.13 mph66%29.97 "Hg15 mi
1:00 am-35 °FSnow flurries. Passing clouds.8 mph59%29.95 "Hg15 mi
12:00 am-33 °FSnow flurries. Passing clouds.5 mph60%29.93 "Hg15 mi
11:00 pm
Wed, Jan 18
-33 °FSnow flurries. Passing clouds.9 mph66%29.91 "Hg15 mi
10:00 pm-31 °FSnow flurries. Passing clouds.10 mph67%29.89 "Hg15 mi
9:00 pm-29 °FSnow flurries. Passing clouds.3 mph67%29.88 "Hg15 mi
8:00 pm-27 °FPassing clouds.No wind67%29.86 "Hg15 mi
7:00 pm-29 °FSnow flurries. Passing clouds.2 mph67%29.86 "Hg15 mi
6:00 pm-27 °FSnow flurries. Passing clouds.8 mph67%29.83 "Hg15 mi
5:00 pm-27 °FSnow flurries. Passing clouds.9 mph67%29.82 "Hg15 mi
4:00 pm-27 °FSnow flurries. Fog.8 mph67%29.82 "Hg15 mi
3:00 pm-27 °FSnow flurries. Fog.8 mph67%29.80 "Hg15 mi
2:00 pm-27 °FSnow flurries. Fog.9 mph67%29.79 "Hg15 mi
1:00 pm-27 °FSnow flurries. Partly cloudy.9 mph67%29.77 "Hg15 mi
12:00 pm-29 °FSnow flurries. Passing clouds.10 mph67%29.75 "Hg15 mi
11:00 am-29 °FSnow flurries. Broken clouds.10 mph67%29.72 "Hg15 mi
10:00 am-33 °FSnow flurries. Broken clouds.10 mph66%29.72 "Hg15 mi
Weather by CustomWeather, © 2017

See weather overviewHow to use our weather pages